| time (UTC) | temp F | wind direction | speed MPH | gust MPH | rain 1hr in | rain 24hr in | rain mn in | humidity % | barometer mb |
| 20260904073018 | 60 | 232 | 0.0 | 0.0 | 0.00 | 0.00 | 0.00 | 84 | 1007.9 |
| 20260904071516 | 61 | 216 | 0.0 | 0.0 | 0.00 | 0.00 | 0.00 | 84 | 1007.8 |
| 20260904070014 | 61 | 141 | 0.0 | 0.0 | 0.00 | 0.00 | 0.00 | 83 | 1007.8 |
| 20260904064513 | 61 | 200 | 0.0 | 0.0 | 0.00 | 0.00 | 0.00 | 83 | 1007.7 |
| 20260904063016 | 61 | 201 | 0.0 | 0.0 | 0.00 | 0.00 | 0.00 | 83 | 1007.7 |
| 20260904061521 | 61 | 198 | 0.0 | 0.0 | 0.00 | 0.00 | 0.00 | 83 | 1007.7 |
| 20260904060012 | 61 | 198 | 0.0 | 0.0 | 0.00 | 0.00 | 0.00 | 82 | 1007.7 |
| 20260904054512 | 61 | 213 | 0.0 | 0.0 | 0.00 | 0.00 | 0.00 | 82 | 1007.8 |
| 20260904053011 | 61 | 213 | 0.0 | 0.0 | 0.00 | 0.00 | 0.00 | 82 | 1007.8 |
| 20260904051525 | 61 | 212 | 0.0 | 0.0 | 0.00 | 0.00 | 0.00 | 81 | 1008.0 |
| 20260904050009 | 62 | 217 | 0.0 | 0.0 | 0.00 | 0.00 | 0.00 | 81 | 1008.0 |
| 20260904044509 | 62 | 217 | 0.0 | 0.0 | 0.00 | 0.00 | 0.00 | 80 | 1008.2 |
| 20260904043011 | 62 | 194 | 0.0 | 0.0 | 0.00 | 0.00 | 0.00 | 80 | 1008.2 |
| 20260904041518 | 62 | 193 | 0.0 | 0.0 | 0.00 | 0.00 | 0.00 | 79 | 1008.2 |
| 20260904040008 | 62 | 196 | 0.0 | 0.0 | 0.00 | 0.00 | 0.00 | 79 | 1008.1 |
| 20260904034507 | 62 | 204 | 0.0 | 0.0 | 0.00 | 0.00 | 0.00 | 78 | 1008.1 |
| 20260904033006 | 62 | 203 | 0.0 | 0.0 | 0.00 | 0.00 | 0.00 | 78 | 1007.9 |
| 20260904031505 | 63 | 209 | 0.0 | 2.0 | 0.00 | 0.00 | 0.00 | 78 | 1007.8 |
| 20260904030035 | 63 | 133 | 0.0 | 0.0 | 0.00 | 0.00 | 0.00 | 78 | 1007.7 |
| 20260904024535 | 63 | 221 | 0.0 | 0.0 | 0.00 | 0.00 | 0.00 | 77 | 1007.7 |
| 20260904023034 | 64 | 204 | 0.0 | 3.0 | 0.00 | 0.00 | 0.00 | 76 | 1007.7 |
| 20260904021534 | 64 | 210 | 0.0 | 0.0 | 0.00 | 0.00 | 0.00 | 75 | 1007.6 |
| 20260904020040 | 64 | 215 | 0.0 | 2.0 | 0.00 | 0.00 | 0.00 | 74 | 1007.6 |
| 20260904014531 | 65 | 162 | 0.0 | 4.0 | 0.00 | 0.00 | 0.00 | 73 | 1007.6 |
| 20260904013035 | 66 | 128 | 0.0 | 1.0 | 0.00 | 0.00 | 0.00 | 71 | 1007.8 |
| 20260904011530 | 66 | 319 | 0.0 | 2.0 | 0.00 | 0.00 | 0.00 | 70 | 1007.9 |
| 20260904010029 | 67 | 236 | 1.0 | 5.0 | 0.00 | 0.00 | 0.00 | 67 | 1007.9 |
| 20260904004530 | 67 | 191 | 0.0 | 2.0 | 0.00 | 0.00 | 0.00 | 64 | 1007.8 |
| 20260904003029 | 68 | 227 | 0.0 | 2.0 | 0.00 | 0.00 | 0.00 | 63 | 1007.9 |
| 20260904001527 | 68 | 245 | 0.0 | 2.0 | 0.00 | 0.00 | 0.00 | 63 | 1007.8 |
| 20260904000025 | 68 | 297 | 0.0 | 3.0 | 0.00 | 0.00 | 0.00 | 62 | 1007.9 |
| 20260903234524 | 69 | 305 | 0.0 | 3.0 | 0.00 | 0.00 | 0.00 | 61 | 1008.0 |
| 20260903233023 | 70 | 234 | 0.0 | 5.0 | 0.00 | 0.00 | 0.00 | 59 | 1008.0 |
| 20260903231523 | 70 | 242 | 0.0 | 4.0 | 0.00 | 0.00 | 0.00 | 57 | 1008.0 |
| 20260903230024 | 71 | 198 | 1.0 | 3.0 | 0.00 | 0.00 | 0.00 | 56 | 1008.2 |
| 20260903224517 | 71 | 135 | 0.0 | 4.0 | 0.00 | 0.01 | 0.00 | 54 | 1008.4 |
| 20260903223022 | 72 | 298 | 1.0 | 6.0 | 0.00 | 0.01 | 0.00 | 53 | 1008.7 |
| 20260903221514 | 72 | 284 | 1.0 | 5.0 | 0.00 | 0.01 | 0.00 | 49 | 1008.9 |
| 20260903220011 | 72 | 250 | 2.0 | 6.0 | 0.00 | 0.01 | 0.00 | 47 | 1009.0 |
| 20260903214513 | 72 | 293 | 1.0 | 5.0 | 0.00 | 0.01 | 0.00 | 46 | 1009.1 |
| 20260903213012 | 71 | 194 | 1.0 | 6.0 | 0.00 | 0.01 | 0.00 | 50 | 1009.0 |
| 20260903211509 | 71 | 212 | 1.0 | 4.0 | 0.00 | 0.01 | 0.00 | 52 | 1009.1 |
| 20260903210007 | 71 | 184 | 1.0 | 4.0 | 0.00 | 0.01 | 0.00 | 53 | 1009.1 |
| 20260903204506 | 70 | 184 | 0.0 | 5.0 | 0.00 | 0.01 | 0.00 | 55 | 1009.1 |
| 20260903203006 | 70 | 269 | 2.0 | 7.0 | 0.00 | 0.01 | 0.00 | 54 | 1009.4 |
| 20260903201503 | 70 | 224 | 1.0 | 4.0 | 0.00 | 0.01 | 0.00 | 54 | 1009.5 |
| 20260903200007 | 71 | 325 | 1.0 | 6.0 | 0.00 | 0.01 | 0.00 | 53 | 1009.5 |
| 20260903194600 | 70 | 158 | 2.0 | 4.0 | 0.00 | 0.01 | 0.00 | 56 | 1009.5 |
| 20260903193103 | 70 | 314 | 1.0 | 4.0 | 0.00 | 0.01 | 0.00 | 55 | 1009.8 |
| 20260903191603 | 69 | 295 | 0.0 | 7.0 | 0.00 | 0.01 | 0.00 | 56 | 1009.9 |
| 20260903190053 | 68 | 198 | 1.0 | 4.0 | 0.00 | 0.01 | 0.00 | 57 | 1010.1 |
| 20260903184553 | 69 | 276 | 1.0 | 3.0 | 0.00 | 0.01 | 0.00 | 55 | 1010.4 |
| 20260903183113 | 69 | 223 | 0.0 | 5.0 | 0.00 | 0.01 | 0.00 | 52 | 1010.4 |
| 20260903181549 | 67 | 124 | 0.0 | 4.0 | 0.00 | 0.01 | 0.00 | 54 | 1010.5 |
| 20260903180045 | 66 | 204 | 0.0 | 3.0 | 0.00 | 0.01 | 0.00 | 54 | 1010.5 |
| 20260903174545 | 66 | 210 | 0.0 | 3.0 | 0.00 | 0.01 | 0.00 | 55 | 1010.4 |
| 20260903173043 | 66 | 235 | 0.0 | 4.0 | 0.00 | 0.01 | 0.00 | 53 | 1010.6 |
| 20260903171542 | 66 | 307 | 1.0 | 2.0 | 0.00 | 0.01 | 0.00 | 55 | 1010.6 |
| 20260903170041 | 67 | 237 | 0.0 | 3.0 | 0.00 | 0.01 | 0.00 | 54 | 1010.6 |
| 20260903164539 | 66 | 205 | 0.0 | 2.0 | 0.00 | 0.01 | 0.00 | 56 | 1010.5 |
| 20260903163035 | 65 | 145 | 0.0 | 1.0 | 0.00 | 0.01 | 0.00 | 55 | 1010.6 |
| 20260903161541 | 64 | 117 | 0.0 | 1.0 | 0.00 | 0.01 | 0.00 | 56 | 1010.7 |
| 20260903160029 | 63 | 218 | 0.0 | 1.0 | 0.00 | 0.01 | 0.00 | 60 | 1010.9 |
| 20260903154525 | 61 | 288 | 0.0 | 1.0 | 0.00 | 0.01 | 0.00 | 66 | 1011.0 |
| 20260903153021 | 60 | 330 | 0.0 | 1.0 | 0.00 | 0.01 | 0.00 | 73 | 1011.1 |
| 20260903151516 | 58 | 330 | 0.0 | 1.0 | 0.00 | 0.01 | 0.00 | 77 | 1011.1 |
| 20260903150011 | 57 | 330 | 0.0 | 1.0 | 0.00 | 0.01 | 0.00 | 81 | 1011.1 |
| 20260903144509 | 55 | 330 | 0.0 | 0.0 | 0.00 | 0.01 | 0.00 | 82 | 1011.1 |
| 20260903143006 | 55 | 330 | 0.0 | 0.0 | 0.00 | 0.01 | 0.00 | 83 | 1011.0 |
| 20260903141504 | 54 | 330 | 0.0 | 1.0 | 0.00 | 0.01 | 0.00 | 84 | 1011.0 |
| 20260903140004 | 53 | 342 | 0.0 | 0.0 | 0.00 | 0.01 | 0.00 | 84 | 1010.9 |
| 20260903134502 | 53 | 342 | 0.0 | 0.0 | 0.00 | 0.01 | 0.00 | 84 | 1010.9 |
| 20260903133046 | 53 | 342 | 0.0 | 0.0 | 0.00 | 0.01 | 0.00 | 84 | 1010.8 |
| 20260903131521 | 53 | 342 | 0.0 | 0.0 | 0.00 | 0.01 | 0.00 | 84 | 1010.8 |
| 20260903130104 | 53 | 342 | 0.0 | 0.0 | 0.00 | 0.01 | 0.00 | 83 | 1010.8 |
| 20260903124603 | 53 | 342 | 0.0 | 0.0 | 0.00 | 0.01 | 0.00 | 83 | 1010.9 |
| 20260903123056 | 53 | 342 | 0.0 | 0.0 | 0.00 | 0.01 | 0.00 | 84 | 1011.0 |
| 20260903121600 | 53 | 342 | 0.0 | 0.0 | 0.00 | 0.01 | 0.00 | 83 | 1011.0 |
| 20260903120056 | 53 | 342 | 0.0 | 0.0 | 0.00 | 0.01 | 0.00 | 83 | 1011.2 |
| 20260903114553 | 54 | 342 | 0.0 | 0.0 | 0.00 | 0.01 | 0.00 | 83 | 1011.3 |
| 20260903113051 | 54 | 342 | 0.0 | 0.0 | 0.00 | 0.01 | 0.00 | 83 | 1011.4 |
| 20260903111549 | 53 | 342 | 0.0 | 0.0 | 0.00 | 0.01 | 0.00 | 83 | 1011.5 |
| 20260903110048 | 53 | 342 | 0.0 | 0.0 | 0.00 | 0.01 | 0.00 | 83 | 1011.7 |
| 20260903104547 | 53 | 342 | 0.0 | 0.0 | 0.00 | 0.01 | 0.00 | 83 | 1011.7 |
| 20260903103045 | 53 | 342 | 0.0 | 0.0 | 0.00 | 0.01 | 0.00 | 84 | 1011.8 |
| 20260903101545 | 52 | 342 | 0.0 | 0.0 | 0.00 | 0.01 | 0.00 | 84 | 1011.8 |
| 20260903100044 | 52 | 342 | 0.0 | 1.0 | 0.00 | 0.01 | 0.00 | 84 | 1011.8 |
| 20260903094543 | 52 | 342 | 0.0 | 0.0 | 0.00 | 0.01 | 0.00 | 85 | 1011.8 |
| 20260903093043 | 51 | 342 | 0.0 | 0.0 | 0.00 | 0.01 | 0.00 | 85 | 1012.0 |
| 20260903091552 | 51 | 342 | 0.0 | 0.0 | 0.00 | 0.01 | 0.00 | 85 | 1012.0 |
| 20260903090037 | 52 | 342 | 0.0 | 0.0 | 0.00 | 0.01 | 0.00 | 84 | 1012.1 |
| 20260903084535 | 52 | 342 | 0.0 | 0.0 | 0.00 | 0.01 | 0.00 | 83 | 1012.1 |
| 20260903083034 | 52 | 342 | 0.0 | 0.0 | 0.00 | 0.01 | 0.00 | 83 | 1012.2 |
| 20260903081533 | 52 | 342 | 0.0 | 0.0 | 0.00 | 0.01 | 0.00 | 83 | 1012.2 |
| 20260903080032 | 53 | 342 | 0.0 | 0.0 | 0.00 | 0.01 | 0.00 | 83 | 1012.2 |
| 20260903074530 | 53 | 342 | 0.0 | 0.0 | 0.00 | 0.01 | 0.00 | 83 | 1012.2 |